Weather in Olen'kovskiy

Russia / Tula Oblast     54˚34′32″N   38˚06′04″E
temp.,
°C
wind,
m/s
gust,
m/s
humid.,
%
clouds,
%
prec.,
mm/h
press.,
hPa
HPBL,
m
16 january, sat
sat1600:00−17˚n3596100 0.0 1009108
03:00−17˚n3696100 0.0 1008179
06:00−17˚nnw4697100 0.0 1007169
09:00−16˚nnw5996100 0.5 1006252
12:00−15˚nw5995100 0.8 1006340
15:00−15˚nw61095100 1.8 1006432
18:00−16˚nw61095100 0.8 1007462
21:00−16˚nw5995100 1.8 1008488
17 january, sun
sun1700:00−17˚nw4896100 1.1 1009511
03:00−17˚nw4796100 2.4 1010500
06:00−19˚nw4795100 0.4 1011386
09:00−22˚nw3698100 0.5 1013147
12:00−22˚nnw349699 0.0 1015217
15:00−22˚nnw359683 0.0 1016211
18:00−26˚n23990 0.0 101819
21:00−26˚n239939 0.0 101919
18 january, mon
mon1800:00−26˚nne239880 0.0 101922
03:00−27˚n119988 0.0 102019
06:00−26˚n339894 0.0 102026
09:00−26˚s119895 0.0 102119
12:00−22˚nne119497 0.0 1021113
15:00−20˚n239487 0.0 1020124
18:00−23˚sw0095100 0.0 102020
21:00−22˚n1193100 0.0 102020
19 january, tue
tue1900:00−21˚nw1193100 0.0 102020
03:00−20˚nnw2293100 0.0 102052
06:00−20˚n2294100 0.0 101929
09:00−20˚nnw1293100 0.0 101920
12:00−17˚nnw2289100 0.0 1019175
15:00−17˚nnw2393100 0.0 1019201
18:00−18˚nw2297100 0.0 102020
21:00−18˚nnw239798 0.1 102231
20 january, wed
wed2000:00−20˚nnw2210091 0.0 102320
03:00−21˚nw2210080 0.0 102420
06:00−21˚wnw2210062 0.0 102520
09:00−21˚wnw1210065 0.0 102620
12:00−16˚wsw239519 0.0 1026127
15:00−15˚sw239515 0.0 1026105
18:00−18˚sw349720 0.0 102732
21:00−19˚ssw469726 0.0 102789